| time (UTC) | temp F | wind direction | speed knots | gust knots | rain 1hr in | rain 24hr in | rain mn in | humidity % | barometer mb |
| 20260902002704 | 58 | 186 | 3.5 | 6.1 | 0.00 | 0.65 | 0.00 | 96 | 1013.4 |
| 20260902002203 | 58 | 208 | 4.3 | 8.7 | 0.00 | 0.65 | 0.00 | 96 | 1013.5 |
| 20260902001705 | 58 | 213 | 4.3 | 7.0 | 0.00 | 0.65 | 0.00 | 96 | 1013.7 |
| 20260902001204 | 58 | 221 | 2.6 | 5.2 | 0.00 | 0.65 | 0.00 | 96 | 1013.6 |
| 20260902000704 | 58 | 189 | 2.6 | 4.3 | 0.00 | 0.65 | 0.00 | 96 | 1013.6 |
| 20260902000204 | 58 | 207 | 4.3 | 7.8 | 0.00 | 0.65 | 0.00 | 96 | 1013.5 |
| 20260901235704 | 58 | 207 | 1.7 | 2.6 | 0.00 | 0.65 | 0.00 | 96 | 1013.5 |
| 20260901235204 | 58 | 187 | 1.7 | 2.6 | 0.00 | 0.65 | 0.00 | 96 | 1013.6 |
| 20260901234204 | 58 | 192 | 1.7 | 2.6 | 0.00 | 0.65 | 0.00 | 96 | 1013.7 |
| 20260901233704 | 58 | 195 | 1.7 | 4.3 | 0.00 | 0.65 | 0.00 | 96 | 1013.7 |
| 20260901233204 | 58 | 178 | 2.6 | 5.2 | 0.00 | 0.65 | 0.00 | 96 | 1013.7 |
| 20260901232704 | 58 | 172 | 2.6 | 5.2 | 0.00 | 0.65 | 0.00 | 95 | 1013.9 |
| 20260901231704 | 58 | 173 | 2.6 | 5.2 | 0.00 | 0.65 | 0.00 | 95 | 1013.8 |
| 20260901231204 | 58 | 181 | 1.7 | 5.2 | 0.00 | 0.65 | 0.00 | 95 | 1013.9 |
| 20260901230704 | 58 | 210 | 1.7 | 4.3 | 0.00 | 0.65 | 0.00 | 96 | 1013.9 |
| 20260901230204 | 58 | 207 | 1.7 | 4.3 | 0.00 | 0.65 | 0.00 | 95 | 1013.9 |
| 20260901225704 | 58 | 218 | 2.6 | 4.3 | 0.00 | 0.65 | 0.65 | 95 | 1013.9 |
| 20260901225203 | 58 | 176 | 2.6 | 4.3 | 0.00 | 0.65 | 0.65 | 95 | 1014.0 |
| 20260901224704 | 58 | 175 | 1.7 | 4.3 | 0.00 | 0.65 | 0.65 | 95 | 1014.2 |
| 20260901224204 | 58 | 182 | 1.7 | 4.3 | 0.00 | 0.65 | 0.65 | 95 | 1014.2 |
| 20260901223703 | 58 | 179 | 0.9 | 2.6 | 0.00 | 0.65 | 0.65 | 95 | 1014.3 |
| 20260901223204 | 58 | 190 | 1.7 | 4.3 | 0.00 | 0.65 | 0.65 | 95 | 1014.2 |
| 20260901222703 | 59 | 192 | 2.6 | 5.2 | 0.00 | 0.65 | 0.65 | 95 | 1014.2 |
| 20260901221704 | 59 | 215 | 2.6 | 5.2 | 0.00 | 0.65 | 0.65 | 95 | 1014.2 |
| 20260901220704 | 59 | 213 | 2.6 | 5.2 | 0.00 | 0.65 | 0.65 | 95 | 1014.3 |
| 20260901220204 | 59 | 193 | 1.7 | 4.3 | 0.00 | 0.65 | 0.65 | 95 | 1014.3 |
| 20260901215704 | 59 | 0 | 1.7 | 2.6 | 0.00 | 0.65 | 0.65 | 95 | 1014.3 |
| 20260901215204 | 59 | 200 | 2.6 | 5.2 | 0.00 | 0.65 | 0.65 | 95 | 1014.3 |
| 20260901214703 | 59 | 200 | 2.6 | 5.2 | 0.00 | 0.65 | 0.65 | 95 | 1014.3 |
| 20260901214204 | 59 | 219 | 2.6 | 7.0 | 0.00 | 0.65 | 0.65 | 95 | 1014.3 |
| 20260901213704 | 59 | 213 | 4.3 | 7.8 | 0.00 | 0.65 | 0.65 | 94 | 1014.4 |
| 20260901213204 | 59 | 225 | 4.3 | 7.8 | 0.00 | 0.65 | 0.65 | 95 | 1014.5 |
| 20260901212704 | 59 | 220 | 4.3 | 7.8 | 0.00 | 0.65 | 0.65 | 95 | 1014.7 |
| 20260901212204 | 59 | 215 | 5.2 | 10.4 | 0.00 | 0.65 | 0.65 | 95 | 1014.7 |
| 20260901210704 | 59 | 217 | 4.3 | 7.8 | 0.00 | 0.65 | 0.65 | 95 | 1014.5 |
| 20260901210204 | 59 | 0 | 4.3 | 6.1 | 0.00 | 0.65 | 0.65 | 95 | 1014.4 |
| 20260901205203 | 60 | 244 | 3.5 | 6.1 | 0.00 | 0.65 | 0.65 | 95 | 1014.5 |
| 20260901204704 | 60 | 221 | 2.6 | 6.1 | 0.00 | 0.65 | 0.65 | 95 | 1014.5 |
| 20260901204204 | 60 | 213 | 4.3 | 7.0 | 0.00 | 0.65 | 0.65 | 95 | 1014.4 |
| 20260901203204 | 60 | 208 | 4.3 | 6.1 | 0.00 | 0.65 | 0.65 | 95 | 1014.5 |
| 20260901202703 | 60 | 222 | 4.3 | 7.0 | 0.00 | 0.65 | 0.65 | 95 | 1014.5 |
| 20260901201704 | 60 | 217 | 4.3 | 7.0 | 0.00 | 0.65 | 0.65 | 95 | 1014.5 |
| 20260901200204 | 60 | 208 | 2.6 | 5.2 | 0.00 | 0.65 | 0.65 | 95 | 1014.4 |
| 20260901195704 | 60 | 219 | 2.6 | 5.2 | 0.00 | 0.65 | 0.65 | 95 | 1014.3 |
| 20260901195203 | 60 | 223 | 4.3 | 6.1 | 0.00 | 0.65 | 0.65 | 95 | 1014.3 |
| 20260901194703 | 60 | 226 | 4.3 | 7.8 | 0.00 | 0.65 | 0.65 | 95 | 1014.3 |
| 20260901194204 | 60 | 220 | 2.6 | 5.2 | 0.00 | 0.65 | 0.65 | 95 | 1014.3 |
| 20260901193204 | 60 | 209 | 2.6 | 5.2 | 0.00 | 0.65 | 0.65 | 95 | 1014.3 |
| 20260901192204 | 60 | 213 | 2.6 | 5.2 | 0.00 | 0.65 | 0.65 | 95 | 1014.3 |
| 20260901191703 | 60 | 218 | 3.5 | 7.0 | 0.00 | 0.65 | 0.65 | 95 | 1014.3 |
| 20260901191203 | 60 | 235 | 2.6 | 5.2 | 0.00 | 0.65 | 0.65 | 95 | 1014.3 |
| 20260901190204 | 60 | 227 | 2.6 | 7.0 | 0.00 | 0.65 | 0.65 | 95 | 1014.3 |
| 20260901185704 | 60 | 233 | 4.3 | 5.2 | 0.00 | 0.67 | 0.65 | 95 | 1014.3 |
| 20260901185204 | 61 | 238 | 3.5 | 7.0 | 0.00 | 0.68 | 0.65 | 95 | 1014.3 |
| 20260901184703 | 61 | 237 | 2.6 | 6.1 | 0.00 | 0.68 | 0.65 | 95 | 1014.3 |
| 20260901184204 | 61 | 215 | 2.6 | 7.8 | 0.00 | 0.68 | 0.65 | 95 | 1014.3 |
| 20260901183703 | 61 | 220 | 4.3 | 7.8 | 0.00 | 0.68 | 0.65 | 95 | 1014.3 |
| 20260901183204 | 61 | 213 | 4.3 | 7.0 | 0.00 | 0.68 | 0.65 | 95 | 1014.3 |
| 20260901182704 | 61 | 217 | 3.5 | 7.0 | 0.00 | 0.68 | 0.65 | 95 | 1014.3 |
| 20260901182205 | 61 | 203 | 2.6 | 5.2 | 0.00 | 0.68 | 0.65 | 95 | 1014.4 |
| 20260901181204 | 61 | 236 | 2.6 | 6.1 | 0.00 | 0.68 | 0.65 | 95 | 1014.4 |
| 20260901180704 | 61 | 240 | 3.5 | 7.0 | 0.00 | 0.68 | 0.65 | 95 | 1014.4 |
| 20260901180204 | 61 | 226 | 2.6 | 5.2 | 0.00 | 0.68 | 0.65 | 95 | 1014.4 |
| 20260901175703 | 61 | 229 | 2.6 | 5.2 | 0.00 | 0.68 | 0.65 | 95 | 1014.4 |
| 20260901175204 | 61 | 204 | 2.6 | 6.1 | 0.00 | 0.68 | 0.65 | 95 | 1014.4 |
| 20260901174704 | 61 | 197 | 2.6 | 4.3 | 0.00 | 0.68 | 0.65 | 95 | 1014.5 |
| 20260901174203 | 61 | 239 | 3.5 | 5.2 | 0.00 | 0.68 | 0.65 | 95 | 1014.5 |
| 20260901173204 | 61 | 240 | 3.5 | 6.1 | 0.00 | 0.68 | 0.65 | 95 | 1014.5 |
| 20260901172704 | 61 | 228 | 2.6 | 7.0 | 0.00 | 0.68 | 0.65 | 96 | 1014.4 |
| 20260901172204 | 61 | 224 | 3.5 | 7.8 | 0.00 | 0.68 | 0.65 | 96 | 1014.4 |
| 20260901171704 | 61 | 241 | 5.2 | 10.4 | 0.00 | 0.68 | 0.65 | 96 | 1014.5 |
| 20260901171204 | 61 | 237 | 5.2 | 10.4 | 0.00 | 0.68 | 0.65 | 96 | 1014.4 |
| 20260901170203 | 61 | 243 | 5.2 | 8.7 | 0.00 | 0.68 | 0.65 | 96 | 1014.4 |
| 20260901165704 | 61 | 270 | 5.2 | 10.4 | 0.00 | 0.68 | 0.65 | 96 | 1014.4 |
| 20260901165204 | 61 | 238 | 4.3 | 10.4 | 0.00 | 0.68 | 0.65 | 96 | 1014.5 |
| 20260901163203 | 61 | 233 | 4.3 | 7.0 | 0.00 | 0.69 | 0.65 | 96 | 1014.7 |
| 20260901162703 | 61 | 232 | 5.2 | 8.7 | 0.00 | 0.69 | 0.65 | 96 | 1014.8 |
| 20260901162204 | 61 | 245 | 5.2 | 7.8 | 0.00 | 0.69 | 0.65 | 96 | 1014.7 |
| 20260901161204 | 61 | 220 | 5.2 | 8.7 | 0.00 | 0.69 | 0.65 | 96 | 1014.6 |
| 20260901160704 | 61 | 219 | 5.2 | 8.7 | 0.00 | 0.69 | 0.65 | 96 | 1014.7 |
| 20260901160204 | 61 | 207 | 4.3 | 7.0 | 0.00 | 0.69 | 0.65 | 96 | 1014.7 |
| 20260901155704 | 61 | 215 | 4.3 | 7.8 | 0.01 | 0.69 | 0.65 | 96 | 1014.6 |
| 20260901155203 | 61 | 216 | 4.3 | 10.4 | 0.03 | 0.69 | 0.65 | 96 | 1014.7 |
| 20260901154205 | 61 | 193 | 4.3 | 7.8 | 0.16 | 0.69 | 0.65 | 96 | 1014.6 |
| 20260901153704 | 61 | 181 | 3.5 | 6.1 | 0.22 | 0.69 | 0.65 | 96 | 1014.7 |
| 20260901153204 | 60 | 223 | 3.5 | 7.8 | 0.25 | 0.69 | 0.65 | 96 | 1014.7 |
| 20260901152704 | 60 | 240 | 2.6 | 6.1 | 0.25 | 0.69 | 0.65 | 96 | 1014.6 |
| 20260901151704 | 60 | 235 | 2.6 | 2.6 | 0.26 | 0.69 | 0.65 | 96 | 1014.7 |
| 20260901151204 | 59 | 247 | 2.6 | 5.2 | 0.26 | 0.69 | 0.65 | 96 | 1014.8 |
| 20260901150704 | 59 | 239 | 1.7 | 6.1 | 0.27 | 0.69 | 0.65 | 96 | 1014.7 |
| 20260901150204 | 59 | 248 | 3.5 | 7.8 | 0.29 | 0.69 | 0.65 | 96 | 1015.0 |
| 20260901145704 | 59 | 242 | 4.3 | 7.8 | 0.31 | 0.69 | 0.64 | 96 | 1015.0 |
| 20260901145204 | 59 | 250 | 2.6 | 6.1 | 0.31 | 0.66 | 0.61 | 96 | 1014.9 |
| 20260901144704 | 59 | 284 | 2.6 | 6.1 | 0.27 | 0.61 | 0.56 | 96 | 1015.0 |
| 20260901144204 | 59 | 254 | 2.6 | 6.1 | 0.20 | 0.54 | 0.49 | 96 | 1014.9 |
| 20260901143703 | 59 | 245 | 2.6 | 5.2 | 0.15 | 0.47 | 0.43 | 96 | 1015.1 |
| 20260901143204 | 59 | 252 | 3.5 | 6.1 | 0.13 | 0.44 | 0.39 | 96 | 1015.0 |
| 20260901142704 | 59 | 243 | 2.6 | 6.1 | 0.15 | 0.44 | 0.39 | 96 | 1014.9 |
| 20260901142204 | 59 | 272 | 3.5 | 7.8 | 0.17 | 0.44 | 0.39 | 96 | 1015.0 |
| 20260901141704 | 59 | 264 | 2.6 | 7.0 | 0.18 | 0.43 | 0.39 | 96 | 1014.9 |
| 20260901141204 | 58 | 268 | 4.3 | 8.7 | 0.19 | 0.43 | 0.39 | 95 | 1014.9 |
| 20260901140704 | 58 | 246 | 3.5 | 5.2 | 0.20 | 0.43 | 0.38 | 95 | 1015.0 |
| 20260901140204 | 58 | 256 | 2.6 | 5.2 | 0.21 | 0.40 | 0.35 | 95 | 1015.0 |
| 20260901135704 | 59 | 234 | 2.6 | 6.1 | 0.18 | 0.37 | 0.32 | 95 | 1015.1 |
| 20260901135203 | 59 | 239 | 4.3 | 7.8 | 0.17 | 0.35 | 0.31 | 95 | 1015.0 |
| 20260901134704 | 59 | 256 | 5.2 | 8.7 | 0.15 | 0.34 | 0.29 | 95 | 1015.2 |
| 20260901134204 | 59 | 262 | 5.2 | 10.4 | 0.14 | 0.33 | 0.28 | 95 | 1015.0 |
| 20260901133704 | 60 | 269 | 5.2 | 8.7 | 0.13 | 0.32 | 0.28 | 95 | 1015.0 |
| 20260901133204 | 60 | 255 | 6.1 | 10.4 | 0.12 | 0.31 | 0.26 | 95 | 1015.1 |
| 20260901132704 | 60 | 251 | 6.1 | 11.3 | 0.10 | 0.29 | 0.24 | 95 | 1015.0 |
| 20260901132204 | 60 | 271 | 6.1 | 10.4 | 0.08 | 0.27 | 0.22 | 95 | 1015.0 |
| 20260901131703 | 60 | 251 | 7.8 | 13.0 | 0.06 | 0.25 | 0.20 | 94 | 1015.1 |
| 20260901122704 | 61 | 251 | 6.1 | 13.0 | 0.00 | 0.19 | 0.14 | 94 | 1014.7 |
| 20260901121703 | 62 | 232 | 11.3 | 17.4 | 0.00 | 0.19 | 0.14 | 94 | 1014.5 |
| 20260901121204 | 62 | 217 | 11.3 | 13.0 | 0.00 | 0.19 | 0.14 | 95 | 1014.4 |
| 20260901120703 | 62 | 220 | 11.3 | 13.0 | 0.00 | 0.19 | 0.14 | 95 | 1014.5 |
| 20260901120204 | 62 | 0 | 7.8 | 11.3 | 0.00 | 0.19 | 0.14 | 95 | 1014.5 |
| 20260901115704 | 62 | 243 | 7.8 | 13.9 | 0.00 | 0.19 | 0.14 | 95 | 1014.5 |
| 20260901114704 | 62 | 314 | 8.7 | 13.0 | 0.00 | 0.19 | 0.14 | 96 | 1014.5 |
| 20260901114204 | 62 | 254 | 6.1 | 11.3 | 0.00 | 0.19 | 0.14 | 96 | 1014.5 |
| 20260901113703 | 61 | 251 | 7.8 | 13.0 | 0.00 | 0.19 | 0.14 | 96 | 1014.4 |
| 20260901113204 | 61 | 314 | 7.0 | 11.3 | 0.00 | 0.19 | 0.14 | 96 | 1014.5 |
| 20260901112704 | 61 | 248 | 6.1 | 10.4 | 0.00 | 0.19 | 0.14 | 96 | 1014.4 |
| 20260901112204 | 61 | 244 | 5.2 | 8.7 | 0.00 | 0.19 | 0.14 | 96 | 1014.4 |
| 20260901111704 | 61 | 265 | 6.1 | 12.2 | 0.00 | 0.19 | 0.14 | 96 | 1014.4 |
| 20260901111204 | 61 | 262 | 6.1 | 12.2 | 0.00 | 0.19 | 0.14 | 96 | 1014.4 |
| 20260901110704 | 61 | 223 | 7.8 | 12.2 | 0.00 | 0.19 | 0.14 | 96 | 1014.4 |
| 20260901105204 | 61 | 248 | 5.2 | 7.8 | 0.00 | 0.19 | 0.14 | 96 | 1014.3 |
| 20260901104204 | 61 | 276 | 4.3 | 10.4 | 0.00 | 0.19 | 0.14 | 96 | 1014.5 |
| 20260901103204 | 61 | 237 | 6.1 | 11.3 | 0.01 | 0.19 | 0.14 | 96 | 1014.4 |
| 20260901102203 | 61 | 252 | 2.6 | 8.7 | 0.01 | 0.19 | 0.14 | 96 | 1014.5 |
| 20260901101703 | 60 | 227 | 5.2 | 8.7 | 0.01 | 0.19 | 0.14 | 96 | 1014.5 |
| 20260901101204 | 60 | 254 | 6.1 | 10.4 | 0.01 | 0.19 | 0.14 | 96 | 1014.4 |
| 20260901100704 | 60 | 248 | 7.0 | 12.2 | 0.01 | 0.19 | 0.14 | 96 | 1014.6 |
| 20260901100205 | 59 | 287 | 7.8 | 12.2 | 0.01 | 0.19 | 0.14 | 96 | 1014.5 |
| 20260901095704 | 59 | 249 | 5.2 | 8.7 | 0.01 | 0.19 | 0.14 | 96 | 1014.6 |
| 20260901095204 | 59 | 253 | 6.1 | 12.2 | 0.02 | 0.19 | 0.14 | 96 | 1014.5 |
| 20260901094204 | 59 | 237 | 7.0 | 11.3 | 0.02 | 0.19 | 0.14 | 96 | 1014.4 |
| 20260901093703 | 59 | 271 | 8.7 | 13.9 | 0.02 | 0.18 | 0.13 | 96 | 1014.3 |
| 20260901093204 | 59 | 241 | 7.8 | 13.9 | 0.02 | 0.18 | 0.13 | 96 | 1014.4 |
| 20260901092704 | 59 | 256 | 6.1 | 12.2 | 0.02 | 0.18 | 0.13 | 96 | 1014.3 |
| 20260901092204 | 60 | 269 | 5.2 | 12.2 | 0.02 | 0.18 | 0.13 | 96 | 1014.3 |
| 20260901091704 | 59 | 260 | 7.0 | 12.2 | 0.02 | 0.18 | 0.13 | 96 | 1014.3 |
| 20260901090204 | 60 | 233 | 6.1 | 10.4 | 0.02 | 0.18 | 0.13 | 96 | 1014.3 |
| 20260901085703 | 59 | 247 | 7.0 | 13.9 | 0.02 | 0.18 | 0.13 | 96 | 1014.3 |
| 20260901084703 | 60 | 252 | 6.1 | 11.3 | 0.00 | 0.17 | 0.12 | 96 | 1014.2 |
| 20260901083704 | 60 | 250 | 7.0 | 11.3 | 0.00 | 0.17 | 0.12 | 96 | 1014.0 |
| 20260901083204 | 60 | 220 | 5.2 | 8.7 | 0.00 | 0.17 | 0.12 | 96 | 1014.0 |
| 20260901082704 | 59 | 238 | 7.0 | 10.4 | 0.00 | 0.17 | 0.12 | 96 | 1014.1 |
| 20260901082204 | 59 | 238 | 6.1 | 10.4 | 0.00 | 0.17 | 0.12 | 96 | 1013.9 |
| 20260901081704 | 59 | 228 | 5.2 | 10.4 | 0.00 | 0.17 | 0.12 | 96 | 1013.9 |
| 20260901081203 | 59 | 261 | 5.2 | 10.4 | 0.00 | 0.17 | 0.12 | 96 | 1013.9 |
| 20260901080704 | 59 | 232 | 6.1 | 10.4 | 0.00 | 0.17 | 0.12 | 96 | 1013.9 |
| 20260901080204 | 59 | 252 | 5.2 | 12.2 | 0.00 | 0.17 | 0.12 | 96 | 1013.9 |
| 20260901075704 | 59 | 260 | 6.1 | 10.4 | 0.00 | 0.17 | 0.12 | 96 | 1013.9 |
| 20260901075204 | 59 | 233 | 7.8 | 10.4 | 0.00 | 0.17 | 0.12 | 96 | 1013.9 |
| 20260901074704 | 59 | 239 | 6.1 | 12.2 | 0.01 | 0.17 | 0.12 | 96 | 1013.8 |
| 20260901074204 | 59 | 239 | 4.3 | 10.4 | 0.01 | 0.17 | 0.12 | 96 | 1013.9 |
| 20260901073704 | 59 | 216 | 6.1 | 10.4 | 0.02 | 0.17 | 0.12 | 96 | 1013.8 |
| 20260901073204 | 59 | 233 | 5.2 | 11.3 | 0.02 | 0.17 | 0.12 | 96 | 1013.9 |
| 20260901072703 | 58 | 217 | 4.3 | 6.1 | 0.02 | 0.17 | 0.12 | 96 | 1013.7 |
| 20260901072204 | 58 | 227 | 3.5 | 7.8 | 0.02 | 0.17 | 0.12 | 96 | 1013.7 |
| 20260901071704 | 58 | 230 | 1.7 | 6.1 | 0.03 | 0.17 | 0.12 | 96 | 1013.8 |
| 20260901071204 | 58 | 215 | 4.3 | 6.1 | 0.03 | 0.17 | 0.12 | 96 | 1013.9 |
| 20260901070703 | 58 | 212 | 2.6 | 4.3 | 0.03 | 0.17 | 0.12 | 95 | 1013.9 |
| 20260901070204 | 58 | 251 | 1.7 | 4.3 | 0.05 | 0.17 | 0.12 | 95 | 1014.0 |
| 20260901065204 | 58 | 234 | 3.5 | 6.1 | 0.10 | 0.17 | 0.12 | 95 | 1014.1 |
| 20260901064704 | 58 | 255 | 3.5 | 7.0 | 0.09 | 0.17 | 0.11 | 95 | 1014.2 |
| 20260901064203 | 58 | 251 | 3.5 | 7.0 | 0.10 | 0.17 | 0.11 | 95 | 1014.1 |
| 20260901063705 | 58 | 248 | 4.3 | 7.8 | 0.09 | 0.16 | 0.10 | 95 | 1014.1 |
| 20260901063204 | 58 | 232 | 5.2 | 10.4 | 0.09 | 0.16 | 0.10 | 95 | 1014.2 |
| 20260901062203 | 58 | 260 | 3.5 | 8.7 | 0.09 | 0.15 | 0.09 | 95 | 1014.1 |
| 20260901061704 | 58 | 255 | 5.2 | 10.4 | 0.08 | 0.14 | 0.09 | 95 | 1014.2 |
| 20260901061204 | 58 | 248 | 3.5 | 7.0 | 0.08 | 0.14 | 0.09 | 95 | 1014.1 |
| 20260901060703 | 58 | 248 | 4.3 | 7.8 | 0.08 | 0.14 | 0.09 | 94 | 1014.0 |
| 20260901055703 | 58 | 262 | 4.3 | 10.4 | 0.03 | 0.09 | 0.04 | 94 | 1014.1 |
| 20260901054704 | 59 | 235 | 4.3 | 10.4 | 0.01 | 0.07 | 0.02 | 94 | 1014.0 |
| 20260901054204 | 59 | 242 | 6.1 | 10.4 | 0.00 | 0.06 | 0.01 | 94 | 1013.9 |
| 20260901053203 | 59 | 234 | 7.0 | 13.0 | 0.00 | 0.07 | 0.01 | 94 | 1013.8 |
| 20260901052704 | 58 | 225 | 7.0 | 10.4 | 0.00 | 0.07 | 0.01 | 94 | 1013.8 |
| 20260901052204 | 59 | 204 | 6.1 | 12.2 | 0.00 | 0.07 | 0.01 | 94 | 1013.8 |
| 20260901051704 | 58 | 257 | 6.1 | 8.7 | 0.00 | 0.07 | 0.01 | 94 | 1013.8 |
| 20260901051203 | 58 | 237 | 5.2 | 10.4 | 0.00 | 0.07 | 0.01 | 94 | 1013.8 |
| 20260901050704 | 58 | 243 | 7.0 | 10.4 | 0.00 | 0.07 | 0.01 | 94 | 1013.8 |
| 20260901050203 | 58 | 248 | 5.2 | 11.3 | 0.00 | 0.07 | 0.01 | 94 | 1013.8 |
| 20260901045203 | 58 | 230 | 6.1 | 10.4 | 0.00 | 0.07 | 0.01 | 94 | 1013.8 |
| 20260901044703 | 58 | 251 | 5.2 | 10.4 | 0.00 | 0.07 | 0.01 | 94 | 1013.8 |
| 20260901044204 | 58 | 242 | 6.1 | 11.3 | 0.00 | 0.07 | 0.01 | 94 | 1013.7 |
| 20260901043703 | 58 | 254 | 7.8 | 11.3 | 0.00 | 0.07 | 0.01 | 94 | 1013.7 |
| 20260901043204 | 58 | 238 | 6.1 | 12.2 | 0.00 | 0.07 | 0.01 | 94 | 1013.7 |
| 20260901042704 | 58 | 244 | 5.2 | 10.4 | 0.00 | 0.07 | 0.01 | 94 | 1013.7 |
| 20260901042203 | 58 | 242 | 7.0 | 12.2 | 0.00 | 0.07 | 0.01 | 94 | 1013.7 |
| 20260901041704 | 58 | 252 | 5.2 | 10.4 | 0.01 | 0.07 | 0.01 | 94 | 1013.7 |
| 20260901041204 | 58 | 257 | 5.2 | 10.4 | 0.01 | 0.07 | 0.01 | 94 | 1013.8 |
| 20260901040204 | 57 | 255 | 5.2 | 8.7 | 0.01 | 0.07 | 0.01 | 94 | 1013.8 |
| 20260901035704 | 58 | 226 | 5.2 | 10.4 | 0.01 | 0.07 | 0.01 | 94 | 1013.9 |
| 20260901035203 | 58 | 221 | 5.2 | 7.0 | 0.01 | 0.07 | 0.01 | 94 | 1014.0 |
| 20260901034703 | 58 | 234 | 4.3 | 7.0 | 0.01 | 0.07 | 0.01 | 94 | 1014.0 |
| 20260901034204 | 58 | 226 | 5.2 | 8.7 | 0.01 | 0.07 | 0.01 | 94 | 1013.9 |
| 20260901033704 | 58 | 247 | 5.2 | 7.8 | 0.01 | 0.07 | 0.01 | 94 | 1013.8 |
| 20260901032704 | 57 | 234 | 6.1 | 10.4 | 0.01 | 0.07 | 0.01 | 94 | 1013.8 |
| 20260901032204 | 57 | 255 | 5.2 | 10.4 | 0.01 | 0.07 | 0.01 | 94 | 1013.8 |
| 20260901031703 | 57 | 241 | 4.3 | 7.0 | 0.00 | 0.06 | 0.00 | 94 | 1013.7 |
| 20260901031203 | 57 | 240 | 4.3 | 7.8 | 0.00 | 0.06 | 0.00 | 93 | 1013.8 |
| 20260901030203 | 58 | 220 | 5.2 | 8.7 | 0.00 | 0.06 | 0.00 | 93 | 1013.7 |
| 20260901025704 | 58 | 256 | 5.2 | 10.4 | 0.00 | 0.06 | 0.00 | 93 | 1013.8 |
| 20260901025204 | 58 | 239 | 5.2 | 10.4 | 0.00 | 0.06 | 0.00 | 93 | 1013.8 |
| 20260901024704 | 58 | 220 | 7.0 | 10.4 | 0.00 | 0.06 | 0.00 | 93 | 1013.8 |
| 20260901024203 | 58 | 231 | 6.1 | 12.2 | 0.00 | 0.06 | 0.00 | 93 | 1013.8 |
| 20260901023704 | 58 | 235 | 6.1 | 13.0 | 0.00 | 0.06 | 0.00 | 93 | 1013.8 |
| 20260901023204 | 58 | 245 | 7.8 | 12.2 | 0.00 | 0.06 | 0.00 | 93 | 1013.8 |
| 20260901022704 | 58 | 243 | 5.2 | 11.3 | 0.00 | 0.06 | 0.00 | 93 | 1013.8 |
| 20260901022204 | 58 | 241 | 7.8 | 14.8 | 0.00 | 0.06 | 0.00 | 93 | 1013.9 |
| 20260901021703 | 58 | 245 | 6.1 | 14.8 | 0.00 | 0.06 | 0.00 | 93 | 1013.9 |
| 20260901021204 | 58 | 237 | 7.0 | 13.0 | 0.00 | 0.06 | 0.00 | 93 | 1013.9 |
| 20260901020704 | 58 | 232 | 6.1 | 11.3 | 0.00 | 0.06 | 0.00 | 94 | 1013.9 |
| 20260901015703 | 58 | 221 | 6.1 | 10.4 | 0.00 | 0.06 | 0.00 | 93 | 1013.9 |
| 20260901015204 | 58 | 269 | 6.1 | 12.2 | 0.00 | 0.06 | 0.00 | 94 | 1014.0 |
| 20260901014704 | 58 | 236 | 4.3 | 10.4 | 0.00 | 0.06 | 0.00 | 94 | 1014.1 |
| 20260901014203 | 58 | 217 | 5.2 | 10.4 | 0.00 | 0.06 | 0.00 | 94 | 1014.2 |
| 20260901013703 | 58 | 230 | 5.2 | 8.7 | 0.00 | 0.06 | 0.00 | 94 | 1014.2 |
| 20260901012704 | 58 | 223 | 4.3 | 10.4 | 0.00 | 0.06 | 0.00 | 94 | 1014.3 |
| 20260901012204 | 58 | 228 | 5.2 | 10.4 | 0.00 | 0.06 | 0.00 | 94 | 1014.3 |
| 20260901011704 | 58 | 221 | 5.2 | 11.3 | 0.00 | 0.06 | 0.00 | 94 | 1014.3 |
| 20260901011204 | 57 | 233 | 6.1 | 10.4 | 0.00 | 0.06 | 0.00 | 94 | 1014.4 |
| 20260901010704 | 57 | 240 | 5.2 | 10.4 | 0.00 | 0.06 | 0.00 | 94 | 1014.4 |
| 20260901005704 | 57 | 258 | 5.2 | 10.4 | 0.00 | 0.06 | 0.00 | 94 | 1014.4 |
| 20260901005203 | 57 | 266 | 5.2 | 10.4 | 0.00 | 0.06 | 0.00 | 94 | 1014.4 |
| 20260901004704 | 57 | 231 | 4.3 | 8.7 | 0.00 | 0.06 | 0.00 | 94 | 1014.4 |
| 20260901004204 | 57 | 229 | 4.3 | 7.8 | 0.00 | 0.06 | 0.00 | 94 | 1014.4 |
| 20260901003704 | 57 | 238 | 4.3 | 10.4 | 0.00 | 0.06 | 0.00 | 94 | 1014.4 |